QPF
0.02 0.03 0.03 0.04 0.05 0.06 0.06 0.07 0.08 0.08 0.09 0.10 0.09 0.08 0.09 0.08 0.09 0.06 0.05 0.04 0.06 0.05 0.05 0.05 0.06 0.07 0.07 0.08 0.09 0.11 0.13 0.12 0.11 0.10 0.10 0.10 0.10 0.10
0.02 0.02 0.03 0.02 0.03 0.05 0.05 0.05 0.07 0.08 0.08 0.08 0.09 0.09 0.11 0.10 0.11 0.07 0.07 0.06 0.07 0.08 0.07 0.07 0.08 0.09 0.08 0.08 0.07 0.08 0.10 0.11 0.09 0.07 0.06 0.07 0.09 0.10
0.02 0.02 0.04 0.02 0.03 0.05 0.05 0.04 0.05 0.07 0.08 0.08 0.09 0.10 0.10 0.10 0.11 0.09 0.07 0.05 0.06 0.06 0.06 0.07 0.08 0.09 0.09 0.07 0.06 0.05 0.05 0.07 0.07 0.06 0.04 0.04 0.04 0.06
0.02 0.03 0.04 0.03 0.04 0.05 0.06 0.05 0.04 0.05 0.07 0.08 0.09 0.09 0.08 0.09 0.09 0.10 0.07 0.05 0.04 0.04 0.04 0.04 0.05 0.06 0.07 0.06 0.06 0.05 0.03 0.03 0.03 0.03 0.04 0.04 0.04 0.03
0.03 0.02 0.03 0.03 0.03 0.04 0.05 0.05 0.04 0.04 0.06 0.07 0.07 0.08 0.07 0.08 0.08 0.08 0.08 0.06 0.04 0.04 0.03 0.03 0.04 0.06 0.05 0.05 0.05 0.05 0.04 0.03 0.02 0.02 0.02 0.03 0.04 0.03
0.03 0.02 0.02 0.02 0.02 0.02 0.04 0.05 0.05 0.05 0.06 0.07 0.07 0.08 0.08 0.09 0.09 0.07 0.07 0.06 0.04 0.03 0.03 0.03 0.04 0.06 0.07 0.05 0.04 0.04 0.04 0.03 0.02 0.01 0.01 0.01 0.02 0.02
0.02 0.02 0.03 0.03 0.02 0.02 0.02 0.04 0.05 0.06 0.07 0.09 0.08 0.07 0.08 0.10 0.09 0.07 0.05 0.05 0.04 0.03 0.03 0.03 0.03 0.04 0.05 0.04 0.04 0.04 0.04 0.03 0.02 0.01 0.01 0.01 0.01 0.01
0.03 0.03 0.03 0.03 0.02 0.02 0.01 0.02 0.03 0.04 0.05 0.07 0.08 0.07 0.07 0.07 0.07 0.06 0.05 0.04 0.04 0.03 0.03 0.03 0.02 0.03 0.03 0.03 0.03 0.03 0.03 0.03 0.03 0.02 0.01 0.01 0.01 0.02
0.04 0.03 0.03 0.03 0.03 0.03 0.02 0.02 0.02 0.02 0.03 0.05 0.07 0.07 0.07 0.07 0.07 0.06 0.05 0.05 0.05 0.04 0.03 0.03 0.03 0.02 0.02 0.02 0.02 0.02 0.02 0.02 0.02 0.02 0.02 0.01 0.01 0.02
0.06 0.04 0.04 0.04 0.03 0.03 0.03 0.03 0.03 0.02 0.02 0.03 0.06 0.08 0.06 0.06 0.06 0.05 0.05 0.04 0.04 0.04 0.03 0.03 0.03 0.02 0.02 0.02 0.01 0.01 0.01 0.01 0.01 0.01 0.02 0.02 0.01 0.02
0.07 0.05 0.03 0.03 0.02 0.01 0.01 0.02 0.02 0.02 0.01 0.01 0.02 0.03 0.06 0.04 0.05 0.05 0.04 0.04 0.04 0.03 0.03 0.03 0.03 0.03 0.03 0.02 0.01 0.01 0.01 0.01 0.01 0.01 0.01 0.01 0.01 0.01
0.06 0.04 0.03 0.02 0.01 0.00 0.01 0.02 0.02 0.02 0.02 0.01 0.02 0.02 0.04 0.04 0.03 0.03 0.04 0.04 0.05 0.04 0.03 0.03 0.04 0.03 0.03 0.03 0.03 0.02 0.01 0.01 0.00 0.00 0.00 0.00 0.00 0.00
0.04 0.04 0.02 0.01 0.00 0.00 0.01 0.01 0.02 0.02 0.03 0.03 0.03 0.04 0.05 0.05 0.04 0.04 0.05 0.05 0.06 0.06 0.05 0.04 0.04 0.04 0.03 0.04 0.04 0.03 0.02 0.02 0.01 0.01 0.01 0.00 0.00 0.01
0.04 0.04 0.03 0.01 0.00 0.00 0.00 0.00 0.01 0.02 0.02 0.02 0.03 0.03 0.04 0.05 0.05 0.07 0.07 0.06 0.06 0.07 0.06 0.05 0.05 0.05 0.05 0.04 0.03 0.03 0.02 0.02 0.01 0.01 0.01 0.01 0.00 0.01
0.04 0.03 0.02 0.02 0.01 0.01 0.00 0.01 0.01 0.01 0.02 0.02 0.03 0.03 0.05 0.05 0.04 0.05 0.06 0.06 0.06 0.07 0.06 0.04 0.04 0.05 0.05 0.05 0.04 0.03 0.03 0.02 0.02 0.02 0.02 0.01 0.01 0.01
0.02 0.03 0.03 0.03 0.02 0.01 0.01 0.02 0.02 0.02 0.03 0.03 0.03 0.03 0.04 0.04 0.04 0.04 0.05 0.05 0.07 0.07 0.05 0.04 0.03 0.04 0.04 0.04 0.04 0.03 0.03 0.02 0.02 0.02 0.02 0.02 0.02 0.02
0.02 0.03 0.04 0.06 0.05 0.04 0.04 0.04 0.04 0.04 0.04 0.04 0.04 0.03 0.04 0.04 0.05 0.06 0.06 0.05 0.04 0.04 0.04 0.04 0.04 0.04 0.03 0.03 0.03 0.03 0.03 0.03 0.02 0.03 0.04 0.04 0.03 0.03
0.03 0.04 0.04 0.05 0.05 0.06 0.05 0.05 0.05 0.05 0.05 0.04 0.04 0.04 0.03 0.04 0.05 0.07 0.08 0.08 0.06 0.04 0.03 0.04 0.05 0.04 0.03 0.03 0.03 0.03 0.04 0.04 0.03 0.04 0.04 0.03 0.03 0.03
0.03 0.03 0.03 0.04 0.06 0.05 0.05 0.04 0.05 0.04 0.04 0.04 0.04 0.04 0.04 0.04 0.05 0.06 0.08 0.09 0.08 0.06 0.05 0.04 0.04 0.05 0.05 0.05 0.04 0.02 0.04 0.05 0.05 0.04 0.04 0.03 0.03 0.03
0.02 0.02 0.03 0.04 0.05 0.06 0.05 0.05 0.04 0.03 0.03 0.03 0.03 0.04 0.05 0.04 0.05 0.06 0.07 0.07 0.07 0.07 0.06 0.06 0.05 0.04 0.04 0.04 0.04 0.03 0.02 0.04 0.06 0.05 0.05 0.04 0.03 0.03
0.02 0.03 0.03 0.03 0.03 0.04 0.04 0.04 0.03 0.03 0.03 0.03 0.04 0.04 0.06 0.07 0.06 0.05 0.06 0.06 0.06 0.06 0.06 0.06 0.05 0.04 0.05 0.05 0.05 0.04 0.04 0.02 0.02 0.04 0.05 0.05 0.05 0.05
0.02 0.02 0.03 0.02 0.02 0.03 0.03 0.02 0.03 0.03 0.03 0.03 0.04 0.05 0.06 0.07 0.06 0.05 0.05 0.06 0.07 0.07 0.06 0.05 0.05 0.06 0.06 0.08 0.08 0.07 0.05 0.04 0.03 0.02 0.02 0.03 0.04 0.04
0.02 0.02 0.02 0.02 0.02 0.02 0.03 0.03 0.03 0.03 0.03 0.03 0.04 0.04 0.05 0.05 0.05 0.04 0.04 0.04 0.05 0.06 0.07 0.07 0.06 0.06 0.07 0.07 0.08 0.07 0.06 0.05 0.04 0.04 0.03 0.02 0.02 0.02
MSLP
1014.68 1014.50 1014.31 1014.10 1013.86 1013.58 1013.26 1012.90 1012.50 1012.08 1011.65 1011.21 1010.79 1010.39 1010.03 1009.72 1009.46 1009.27 1009.14 1009.06 1009.03 1009.02 1009.01 1009.00 1008.95 1008.86 1008.73 1008.57 1008.39 1008.22 1008.10 1008.04 1008.08 1008.22 1008.49 1008.87 1009.34 1009.88
1014.15 1013.96 1013.76 1013.53 1013.28 1013.00 1012.68 1012.33 1011.96 1011.56 1011.15 1010.74 1010.33 1009.94 1009.57 1009.23 1008.93 1008.68 1008.49 1008.37 1008.30 1008.28 1008.31 1008.35 1008.40 1008.44 1008.45 1008.43 1008.39 1008.34 1008.29 1008.28 1008.33 1008.44 1008.65 1008.94 1009.31 1009.73
1013.55 1013.33 1013.10 1012.86 1012.60 1012.32 1012.01 1011.68 1011.33 1010.97 1010.60 1010.23 1009.85 1009.48 1009.11 1008.75 1008.42 1008.11 1007.85 1007.65 1007.52 1007.46 1007.47 1007.54 1007.65 1007.79 1007.94 1008.07 1008.19 1008.28 1008.37 1008.45 1008.54 1008.67 1008.83 1009.04 1009.30 1009.60
1012.90 1012.65 1012.40 1012.14 1011.87 1011.58 1011.28 1010.97 1010.66 1010.34 1010.02 1009.70 1009.38 1009.04 1008.69 1008.33 1007.97 1007.61 1007.28 1006.99 1006.77 1006.64 1006.59 1006.64 1006.77 1006.96 1007.21 1007.47 1007.74 1007.99 1008.21 1008.41 1008.59 1008.75 1008.91 1009.07 1009.23 1009.41
1012.22 1011.94 1011.66 1011.38 1011.10 1010.82 1010.53 1010.24 1009.97 1009.70 1009.44 1009.18 1008.91 1008.63 1008.32 1007.98 1007.60 1007.21 1006.81 1006.44 1006.12 1005.88 1005.75 1005.73 1005.82 1006.02 1006.31 1006.66 1007.04 1007.42 1007.78 1008.11 1008.39 1008.61 1008.79 1008.92 1009.02 1009.10
1011.53 1011.21 1010.91 1010.61 1010.32 1010.04 1009.76 1009.50 1009.26 1009.04 1008.83 1008.64 1008.44 1008.23 1007.98 1007.67 1007.31 1006.91 1006.47 1006.02 1005.60 1005.25 1005.01 1004.88 1004.90 1005.05 1005.33 1005.70 1006.15 1006.63 1007.10 1007.54 1007.92 1008.22 1008.44 1008.58 1008.65 1008.65
1010.80 1010.45 1010.13 1009.82 1009.53 1009.25 1008.98 1008.74 1008.52 1008.34 1008.19 1008.06 1007.94 1007.79 1007.61 1007.36 1007.04 1006.65 1006.19 1005.70 1005.21 1004.76 1004.40 1004.15 1004.06 1004.12 1004.34 1004.69 1005.16 1005.68 1006.23 1006.76 1007.23 1007.61 1007.90 1008.07 1008.14 1008.11
1010.04 1009.67 1009.33 1009.01 1008.72 1008.44 1008.18 1007.95 1007.75 1007.60 1007.49 1007.40 1007.34 1007.26 1007.15 1006.97 1006.71 1006.36 1005.92 1005.42 1004.89 1004.37 1003.91 1003.55 1003.34 1003.30 1003.42 1003.72 1004.15 1004.69 1005.27 1005.86 1006.40 1006.87 1007.22 1007.44 1007.54 1007.51
1009.24 1008.86 1008.52 1008.20 1007.90 1007.62 1007.36 1007.13 1006.94 1006.80 1006.70 1006.64 1006.61 1006.59 1006.54 1006.43 1006.24 1005.96 1005.57 1005.09 1004.56 1004.00 1003.49 1003.05 1002.74 1002.59 1002.63 1002.84 1003.22 1003.73 1004.32 1004.94 1005.53 1006.06 1006.48 1006.77 1006.91 1006.91
1008.44 1008.06 1007.72 1007.41 1007.11 1006.82 1006.56 1006.31 1006.10 1005.94 1005.83 1005.77 1005.75 1005.75 1005.74 1005.70 1005.58 1005.37 1005.05 1004.63 1004.14 1003.60 1003.07 1002.60 1002.23 1002.01 1001.96 1002.10 1002.41 1002.88 1003.45 1004.07 1004.69 1005.27 1005.75 1006.09 1006.29 1006.33
1007.69 1007.33 1006.99 1006.68 1006.37 1006.08 1005.79 1005.51 1005.27 1005.06 1004.91 1004.82 1004.77 1004.77 1004.78 1004.77 1004.70 1004.56 1004.33 1003.99 1003.57 1003.09 1002.59 1002.13 1001.75 1001.50 1001.40 1001.48 1001.74 1002.15 1002.69 1003.30 1003.93 1004.52 1005.04 1005.43 1005.68 1005.77
1007.04 1006.69 1006.36 1006.05 1005.73 1005.42 1005.09 1004.77 1004.47 1004.20 1003.98 1003.83 1003.74 1003.70 1003.69 1003.69 1003.66 1003.58 1003.42 1003.18 1002.85 1002.45 1002.03 1001.62 1001.27 1001.02 1000.90 1000.95 1001.17 1001.54 1002.03 1002.61 1003.22 1003.82 1004.35 1004.77 1005.06 1005.20
1006.50 1006.17 1005.85 1005.53 1005.20 1004.85 1004.48 1004.11 1003.74 1003.40 1003.10 1002.86 1002.70 1002.60 1002.56 1002.54 1002.53 1002.49 1002.39 1002.23 1001.99 1001.70 1001.37 1001.04 1000.74 1000.53 1000.43 1000.47 1000.65 1000.98 1001.43 1001.97 1002.55 1003.13 1003.65 1004.09 1004.40 1004.58
1006.08 1005.76 1005.44 1005.11 1004.75 1004.37 1003.95 1003.52 1003.08 1002.66 1002.28 1001.97 1001.72 1001.56 1001.46 1001.41 1001.39 1001.36 1001.32 1001.22 1001.07 1000.87 1000.64 1000.39 1000.17 1000.01 999.94 999.98 1000.15 1000.45 1000.85 1001.34 1001.87 1002.41 1002.91 1003.34 1003.67 1003.88
1005.72 1005.41 1005.08 1004.73 1004.35 1003.93 1003.46 1002.98 1002.48 1002.00 1001.55 1001.16 1000.84 1000.61 1000.46 1000.37 1000.32 1000.30 1000.28 1000.23 1000.15 1000.02 999.87 999.71 999.55 999.44 999.40 999.46 999.62 999.88 1000.24 1000.68 1001.16 1001.65 1002.11 1002.52 1002.85 1003.09
1005.37 1005.06 1004.72 1004.35 1003.93 1003.48 1002.97 1002.45 1001.91 1001.37 1000.88 1000.44 1000.07 999.79 999.58 999.46 999.39 999.36 999.34 999.31 999.27 999.20 999.11 999.00 998.90 998.84 998.83 998.89 999.03 999.27 999.59 999.97 1000.39 1000.83 1001.25 1001.64 1001.97 1002.23
1004.98 1004.66 1004.30 1003.91 1003.46 1002.98 1002.45 1001.90 1001.33 1000.78 1000.26 999.79 999.40 999.08 998.85 998.69 998.60 998.55 998.52 998.50 998.47 998.43 998.37 998.30 998.24 998.20 998.20 998.27 998.40 998.61 998.88 999.22 999.59 999.98 1000.37 1000.73 1001.06 1001.35
1004.51 1004.19 1003.82 1003.40 1002.94 1002.44 1001.89 1001.33 1000.76 1000.21 999.69 999.21 998.81 998.48 998.24 998.06 997.94 997.87 997.83 997.80 997.76 997.72 997.67 997.61 997.56 997.54 997.54 997.60 997.72 997.91 998.15 998.45 998.79 999.14 999.50 999.86 1000.19 1000.50
1004.03 1003.70 1003.32 1002.89 1002.42 1001.91 1001.36 1000.80 1000.24 999.69 999.18 998.72 998.32 997.99 997.73 997.53 997.40 997.30 997.23 997.18 997.13 997.07 997.01 996.95 996.90 996.87 996.88 996.93 997.04 997.21 997.44 997.71 998.02 998.36 998.70 999.05 999.39 999.72
1003.61 1003.28 1002.91 1002.49 1002.01 1001.50 1000.96 1000.40 999.85 999.31 998.80 998.34 997.94 997.61 997.33 997.11 996.95 996.82 996.72 996.63 996.55 996.47 996.39 996.32 996.26 996.23 996.23 996.28 996.39 996.56 996.77 997.04 997.34 997.67 998.00 998.34 998.69 999.03
1003.37 1003.07 1002.72 1002.30 1001.84 1001.33 1000.79 1000.24 999.68 999.14 998.63 998.16 997.74 997.38 997.07 996.82 996.61 996.44 996.30 996.17 996.05 995.94 995.84 995.75 995.68 995.65 995.65 995.71 995.82 995.99 996.21 996.47 996.77 997.09 997.43 997.76 998.10 998.44
1003.44 1003.17 1002.84 1002.45 1002.00 1001.51 1000.97 1000.41 999.84 999.28 998.73 998.23 997.76 997.35 996.99 996.68 996.42 996.19 996.00 995.83 995.67 995.53 995.41 995.31 995.23 995.19 995.20 995.26 995.38 995.56 995.78 996.05 996.35 996.67 996.99 997.32 997.63 997.95
1003.86 1003.64 1003.35 1002.99 1002.56 1002.07 1001.53 1000.95 1000.36 999.75 999.16 998.59 998.06 997.58 997.14 996.76 996.43 996.14 995.89 995.67 995.48 995.31 995.17 995.05 994.98 994.94 994.95 995.02 995.14 995.32 995.55 995.82 996.11 996.41 996.72 997.02 997.30 997.56
Thickness
5612 5609 5606 5606 5604 5602 5600 5598 5595 5597 5600 5601 5602 5605 5606 5608 5608 5611 5613 5614 5616 5617 5620 5621 5624 5626 5628 5630 5633 5634 5636 5637 5638 5639 5641 5643 5644 5645
5607 5604 5601 5602 5600 5598 5596 5594 5593 5592 5594 5597 5597 5599 5599 5600 5602 5604 5606 5608 5609 5611 5612 5614 5617 5620 5622 5624 5626 5628 5629 5631 5632 5634 5635 5637 5638 5640
5604 5602 5598 5597 5596 5594 5593 5592 5591 5590 5589 5592 5594 5594 5593 5593 5596 5598 5600 5602 5606 5606 5606 5608 5610 5613 5616 5618 5620 5622 5624 5626 5627 5629 5630 5631 5633 5634
5600 5598 5596 5594 5592 5590 5589 5589 5588 5587 5586 5586 5588 5589 5589 5589 5591 5592 5596 5599 5601 5602 5602 5603 5604 5607 5609 5612 5614 5616 5618 5620 5621 5623 5625 5626 5627 5628
5597 5594 5593 5591 5588 5588 5586 5586 5586 5586 5584 5583 5584 5585 5586 5587 5587 5589 5592 5594 5597 5598 5598 5599 5600 5602 5604 5607 5608 5611 5613 5614 5616 5617 5619 5619 5620 5622
5594 5592 5591 5589 5586 5585 5584 5583 5582 5582 5582 5582 5582 5583 5583 5584 5584 5586 5588 5590 5592 5595 5596 5597 5596 5597 5599 5602 5604 5606 5607 5608 5610 5611 5612 5613 5614 5616
5592 5591 5589 5586 5582 5580 5580 5580 5579 5579 5580 5580 5580 5581 5581 5581 5581 5583 5585 5586 5588 5591 5593 5595 5596 5596 5597 5597 5598 5600 5601 5602 5604 5605 5606 5608 5609 5610
5590 5589 5587 5585 5581 5577 5575 5574 5573 5575 5576 5576 5577 5577 5577 5578 5578 5579 5581 5581 5583 5588 5589 5591 5594 5595 5597 5598 5597 5597 5596 5597 5598 5600 5601 5602 5603 5604
5587 5586 5585 5585 5580 5579 5576 5573 5572 5570 5568 5570 5572 5573 5573 5574 5574 5575 5575 5577 5579 5583 5583 5586 5589 5591 5593 5595 5593 5592 5592 5592 5592 5594 5596 5597 5597 5599
5585 5583 5581 5580 5578 5574 5574 5575 5574 5572 5570 5568 5569 5569 5570 5569 5569 5569 5571 5572 5575 5578 5579 5581 5585 5587 5591 5591 5589 5589 5588 5588 5588 5589 5590 5592 5593 5594
5584 5582 5578 5576 5571 5568 5569 5570 5571 5570 5568 5566 5564 5564 5563 5563 5562 5564 5568 5571 5573 5576 5577 5578 5581 5584 5587 5588 5588 5586 5585 5585 5585 5585 5586 5587 5588 5588
5582 5580 5575 5571 5567 5563 5565 5566 5566 5566 5566 5566 5563 5562 5562 5562 5559 5559 5564 5567 5570 5572 5575 5575 5577 5579 5582 5585 5586 5585 5583 5583 5582 5582 5583 5583 5583 5583
5579 5578 5575 5567 5563 5560 5558 5560 5560 5559 5561 5562 5564 5564 5564 5563 5562 5561 5561 5562 5565 5568 5571 5571 5573 5576 5578 5580 5582 5584 5585 5585 5582 5581 5580 5579 5579 5580
5572 5572 5569 5562 5559 5556 5555 5555 5553 5552 5557 5560 5562 5562 5563 5563 5563 5562 5560 5559 5560 5563 5564 5565 5567 5569 5571 5574 5576 5579 5580 5581 5582 5583 5582 5578 5576 5576
5568 5565 5561 5559 5557 5557 5555 5552 5550 5553 5555 5557 5558 5559 5560 5560 5559 5558 5557 5556 5556 5558 5560 5560 5562 5564 5565 5567 5570 5572 5573 5575 5577 5578 5579 5578 5577 5575
5566 5563 5559 5558 5555 5554 5553 5553 5553 5552 5552 5552 5553 5555 5556 5556 5555 5555 5555 5554 5554 5556 5558 5558 5557 5558 5560 5563 5564 5566 5568 5569 5572 5573 5574 5574 5575 5575
5559 5561 5561 5560 5559 5557 5555 5553 5551 5550 5548 5548 5548 5549 5550 5551 5551 5552 5551 5550 5551 5553 5555 5556 5556 5556 5556 5557 5559 5562 5564 5565 5566 5567 5566 5568 5570 5571
5554 5558 5558 5556 5555 5553 5551 5549 5548 5546 5544 5543 5543 5543 5544 5545 5545 5545 5545 5546 5547 5549 5551 5552 5553 5552 5553 5555 5554 5556 5558 5559 5560 5560 5561 5561 5563 5566
5554 5555 5554 5552 5550 5549 5547 5545 5543 5542 5540 5539 5538 5538 5538 5538 5539 5540 5540 5541 5542 5544 5546 5548 5548 5547 5548 5550 5554 5550 5552 5554 5554 5556 5556 5557 5558 5561
5554 5552 5549 5547 5545 5542 5540 5539 5538 5537 5535 5533 5532 5532 5532 5532 5533 5533 5534 5535 5536 5538 5540 5542 5543 5543 5543 5544 5546 5548 5545 5547 5548 5549 5551 5553 5554 5554
5551 5547 5544 5541 5539 5536 5534 5532 5530 5529 5527 5526 5525 5525 5525 5525 5526 5527 5528 5527 5527 5531 5533 5535 5536 5534 5536 5536 5538 5542 5543 5540 5541 5541 5543 5545 5546 5547
5545 5541 5538 5534 5531 5529 5527 5524 5522 5521 5520 5519 5519 5518 5519 5519 5520 5520 5521 5522 5524 5525 5527 5529 5530 5530 5530 5531 5533 5535 5537 5536 5534 5533 5533 5534 5537 5539
5537 5533 5530 5527 5524 5521 5518 5516 5514 5514 5512 5511 5511 5511 5512 5512 5513 5514 5514 5516 5518 5520 5521 5522 5524 5525 5526 5527 5527 5529 5530 5531 5531 5530 5529 5528 5527 5527